Regional Weather Roundup
Issued by NWS Charleston, WV

Home | Current Version | Previous Version | Text Only | Print | Product List | Glossary Off
Versions: 1 2 3 4 5 6 7 8 9 10 11 12 13 14 15 16 17 18 19 20 21 22 23 24 25 26 27 28 29 30 31 32 33 34 35 36 37 38 39 40 41 42 43 44 45 46 47 48 49 50

000
ASUS41 KRLX 060310
RWRRLX
West Virginia Regional Weather Roundup
National Weather Service Charleston WV
1100 PM EDT SUN JUL 05 2015

Note: "fair" indicates few or no clouds below 12,000 feet with no
significant weather and/or obstructions to visibility.

WVZ003-060400-
Northern Panhandle of West Virginia

CITY           SKY/WX    TMP DP  RH WIND       PRES   REMARKS
WHEELING       CLOUDY    72  62  71 NE7       30.10S
$$

WVZ009-060400-
Northwest West Virginia

CITY           SKY/WX    TMP DP  RH WIND       PRES   REMARKS
PARKERSBURG    CLOUDY    73  69  87 CALM      30.09S
$$

WVZ006-060400-
Western West Virginia

CITY           SKY/WX    TMP DP  RH WIND       PRES   REMARKS
HUNTINGTON     HVY RAIN  68  68 100 VRB3      30.06R VSB 1
$$

WVZ015-060400-
West Central West Virginia

CITY           SKY/WX    TMP DP  RH WIND       PRES   REMARKS
CHARLESTON     CLOUDY    68  66  93 SE3       30.07R
$$

WVZ022-031-060400-
North Central West Virginia

CITY           SKY/WX    TMP DP  RH WIND       PRES   REMARKS
CLARKSBURG     CLOUDY    70  68  93 E5        30.10R
MORGANTOWN     CLOUDY    75  65  70 SE5       30.11R
$$

WVZ025-035-042-045-060400-
Southern West Virginia

CITY           SKY/WX    TMP DP  RH WIND       PRES   REMARKS
BECKLEY        CLOUDY    65  61  87 SE8       30.14S
LOGAN          MOCLDY    68  66  94 CALM      30.07R
BLUEFIELD      CLOUDY    66  62  87 CALM      30.16S FOG
LEWISBURG      RAIN      69  66  90 E6        30.15S
$$

WVZ047-060400-
Northern Mountains of West Virginia

CITY           SKY/WX    TMP DP  RH WIND       PRES   REMARKS
ELKINS         CLOUDY    67  65  93 S3        30.14R
$$

WVZ052-060400-
Eastern Panhandle of West Virginia

CITY           SKY/WX    TMP DP  RH WIND       PRES   REMARKS
MARTINSBURG    MOCLDY    73  69  87 CALM      30.13S
PETERSBURG     RAIN      71  67  89 CALM      30.14R
$$


USA.gov is the U.S. government's official web portal to all federal, state and local government web resources and services.